Regional Weather Roundup
Issued by NWS Grand Forks, ND

Home | Current Version | Previous Version | Graphics & Text | Print | Product List | Glossary On
Versions: 1 2 3 4 5 6 7 8 9 10 11 12 13 14 15 16 17 18 19 20 21 22 23 24 25 26 27 28 29 30 31 32 33 34 35 36 37 38 39 40 41 42 43 44 45 46 47 48 49 50
186
ASUS43 KFGF 290231
RWRFGF
PRAIRIE TO PINES  WEATHER ROUNDUP
NATIONAL WEATHER SERVICE EASTERN NORTH DAKOTA/GRAND FORKS ND
900 PM CDT SUN MAY 28 2017

 **SATELLITE DATA USED TO AUGMENT SKY COVER AT AUTOMATED STATIONS**
 *****  WEATHER ACROSS EASTERN NORTH DAKOTA  *****

CITY           SKY/WX    TMP DP  RH WIND       PRES   REMARKS
GRAND FORKS    CLOUDY    54  48  80 NW20G25   29.77S
GRAND FRKS AFB CLOUDY    54  48  82 N12       29.79R
DEVILS LAKE    CLOUDY    55  46  71 N15       29.84R
FARGO          CLOUDY    55  51  86 NW12      29.78R
WAHPETON ARPT  CLOUDY    54  45  71 N15G21    29.79R
$$

 ***** WEATHER ACROSS CENTRAL AND WESTERN NORTH DAKOTA  *****

CITY           SKY/WX    TMP DP  RH WIND       PRES   REMARKS
BISMARCK       FAIR      61  40  45 N18G26    29.93R
MINOT          FAIR      58  43  57 NW18G35   29.93R
JAMESTOWN      MOCLDY    56  45  66 N13       29.84R
MINOT AFB      FAIR      57  43  59 N17G28    29.92R
GARRISON         N/A     56  40  55 NW21      29.93S
WILLISTON      FAIR      60  40  47 N15       30.03R
DICKINSON      FAIR      61  27  27 N16G29    29.97R
HETTINGER      FAIR      62  32  32 N18       30.00R
$$

 *****  OTHER AIRPORT OBSERVATIONS IN OUR AREA  *****

CITY           SKY/WX    TMP DP  RH WIND       PRES   REMARKS
WALHALLA       NOT AVBL
GRAFTON AIRPOR CLOUDY    50  50 100 NW17G24   29.80S
VALLEY CITY AR CLOUDY    54  45  71 NW18G26   29.84R
CANDO          NOT AVBL
CAVALIER APRT  CLOUDY    52  48  87 NW16G23   29.78S
GWINNER        PTCLDY    55  46  71 MISG      29.83R
SHEYENNE NWR     N/A     58  46  63 NW9       29.95S
ROLLA          CLOUDY    52  46  82 N15       29.87R
 ***** THE ABOVE OBSERVATIONS ARE NON NWS ARE NOT QUALITY
       CONTROLLED AND MAY MIS-REPORT RAIN FOR SNOW...
$$

  *****  WEATHER ACROSS NORTHERN MINNESOTA  *****

CITY           SKY/WX    TMP DP  RH WIND       PRES   REMARKS
FLAG ISLAND    FAIR      54  48  82 NW17G24   29.66S
WARROAD        MOCLDY    55  48  76 NW12      29.70R
ROSEAU         CLOUDY    52  46  82 NW14      29.71R
HALLOCK        CLOUDY    54  48  82 NW17      29.75S
THF RVR FALLS  CLOUDY    52  47  83 NW17      29.75R
BAUDETTE       CLOUDY    54  48  80 NW10      29.66R
WASKISH        CLOUDY    55  50  82 NW10G16   29.68R
CROOKSTON      CLOUDY    54  48  82 N14G22    29.77R
STEPHEN NDAWN    N/A     54  46  76 NW14        N/A
GREENBUSH NDAW   N/A     52  50  93 NW13        N/A
$$
  *****  WEATHER ACROSS CENTRAL AND WEST MINNESOTA  *****

CITY           SKY/WX    TMP DP  RH WIND       PRES   REMARKS
FOSSTON        CLOUDY    50  46  87 NW12G17   29.74R
BEMIDJI        CLOUDY    52  49  91 NW10      29.69R
PARK RAPIDS    LGT RAIN  51  46  83 NW10      29.71R
ELBOW LAKE     CLOUDY    54  49  82 W14       29.77R
WADENA         MOCLDY    55  46  71 W10G23    29.72R
DETROIT LAKES  MOCLDY    52  48  87 NW14G20   29.76S
MOORHEAD       MOCLDY    54  48  82 NW13      29.79R
FERGUS FALLS   CLOUDY    54  46  76 N16G29    29.76R
MORRIS MN      MOCLDY    57  48  72 NW23G31   29.78R
STAPLES        MOCLDY    54  46  76 W6        29.71S
$$
  *****  WEATHER ELSEWHERE ACROSS MINNESOTA  *****

CITY           SKY/WX    TMP DP  RH WIND       PRES   REMARKS
DULUTH         FAIR      53  46  77 W8        29.64F
INTRNTL FALLS  CLOUDY    54  49  83 W6        29.63R
ELY            LGT RAIN  52  50  93 W7        29.62S
CLOQUET        MOCLDY    52  46  82 W6        29.66S
WHEATON        FAIR      55  45  67 NW12G20   29.82R
BRAINERD       FAIR      54  46  74 W6        29.70F
HIBBING        CLOUDY    53  51  93 W3        29.65R
ALEXANDRIA     MOCLDY    57  47  69 SW6       29.74S
SAINT CLOUD    FAIR      53  49  86 W5        29.73F
MINNEAPOLIS    MOCLDY    58  48  69 NW10      29.74R
$$

  *****  WEATHER ACROSS SOUTH DAKOTA  *****

CITY           SKY/WX    TMP DP  RH WIND       PRES   REMARKS
SIOUX FALLS    MOCLDY    55  49  80 NE7       29.87F
BROOKINGS      MOCLDY    55  51  86 SW10      29.86S
WATERTOWN      FAIR      53  48  83 W7        29.85S
HURON          FAIR      59  48  67 NE9       29.86R
SISSETON         N/A     57  46  66 N18G28    29.81R
ABERDEEN       FAIR      60  41  49 N8        29.87R
MITCHELL       MOCLDY    65  46  50 N17G30    29.88R
PIERRE         CLOUDY    67  44  43 NW9       29.89R
MOBRIDGE       FAIR      66  36  32 N15       29.89R
RAPID CITY     FAIR      64  42  44 NW14      30.04R
$$

  *****  SOME WEATHER IN NEARBY STATES *****

CITY           SKY/WX    TMP DP  RH WIND       PRES   REMARKS
GLASGOW MT     FAIR      67  22  18 N22G28    30.09R
GREAT FALLS MT LGT RAIN  57  50  77 W10       30.24R
CHEYENNE WY    FAIR      57  38  48 W9        30.25R
SCOTTSBLUFF NE FAIR      63  45  51 W5        30.13S
OMAHA NE       FAIR      72  42  34 W5        29.89S
DES MOINES IA  FAIR      71  41  33 NW9       29.84R
DAVENPORT IA   FAIR      69  51  52 SW8       29.78S
CHICAGO IL     FAIR      70  47  43 W8        29.75R
EAU CLAIRE WI  FAIR      56  51  84 CALM      29.71F
LA CROSSE WI   FAIR      66  47  50 W7        29.72R
$$

  *****  SOME NATIONAL WEATHER *****

CITY           SKY/WX    TMP DP  RH WIND       PRES   REMARKS
LA GUARDIA NY  CLOUDY    63  50  62 SE8       29.93F
RALEIGH NC     MOCLDY    76  68  76 W3        29.81S
ATLANTA GA     MOCLDY    75  66  73 W7        29.93S
NEW ORLEANS LA MOCLDY    80  73  79 S6        29.94R
OKLAHOMA CITY  FAIR      75  40  28 N8        29.97S
ALBUQUERQUE NM FAIR      76  23  14 SW5       30.14R
SALT LAKE CITY FAIR      75  36  24 N9        30.13S
LOS ANGELES CA FAIR      63  57  81 W13       29.96R
BOISE ID       FAIR      82  36  19 N8        30.07F
SEATTLE WA     FAIR      83  48  29 N9        30.00F
$$

*** WEATHER ACROSS MANITOBA...SASKATCHEWAN AND ONTARIO ***
                ***ONTARIO***

CITY           SKY/WX    TMP DP  RH WIND       PRES   REMARKS
GERALDTON      LGT RAIN  57  50  77 N6        29.61S
THUNDER BAY    LGT RAIN  50  48  93 NE3       29.61S FOG
SIOUX LOOKOUT  LGT RAIN  52  52 100 CALM      29.60S
TORONTO        CLOUDY    64  57  77 NE6       29.69F
BIG TROUT LK   PTCLDY    63  48  59 N5        29.60F
PICKLE LAKE    MOCLDY    57  48  72 W3        29.58F
DRYDEN         CLOUDY    52  52 100 SW5       29.61S
KENORA         MOCLDY    55  48  76 NW10G20   29.65R
$$
                *** MANITOBA***

CITY           SKY/WX    TMP DP  RH WIND       PRES   REMARKS
BRANDON        CLOUDY    55  43  62 N18G25    29.86R
DAUPHIN        CLOUDY    52  45  76 N18G24    29.88R
ISLAND LAKE    NOT AVBL
PILOT MOUND      N/A     50  46  87 NW13G18     N/A
THE PAS        CLOUDY    48  45  87 NW10      29.92S
THOMPSON       LGT RAIN  37  37 100 N9        29.84R FOG
WINNIPEG       LGT RAIN  50  50 100 NW14      29.77R
LYNN LAKE      CLOUDY    46  39  76 N20G36    29.97R
CHURCHILL      LGT RAIN  34  32  93 N15       29.88S WCI  24
GILLAM         DRIZZLE   37  36  93 N9        29.78S FOG
$$
                ***SASKATCHEWAN***

CITY           SKY/WX    TMP DP  RH WIND       PRES   REMARKS
ESTEVAN        PTCLDY    55  41  58 NW17G24   29.99S
KINDERSLEY     PTCLDY    61  34  36 N16       30.18R
LLOYDMINSTER   MOSUNNY   61  32  33 N7        30.19S
PRINCE ALBERT  MOCLDY    57  41  54 N15G26    30.11R
REGINA         PTCLDY    59  41  51 N16G24    30.05
YORKTON          N/A     54  45  71 N23G31    29.97R
N. BATTLEFORD  CLEAR     61  32  33 N15G23    30.18R
LA RONGE       MOCLDY    55  41  58 NW14G22   30.12R
SASKATOON      PTCLDY    57  37  47 N15G23    30.15R
SWIFT CURRENT  CLEAR     59  32  36 N18G24    30.14R
$$
NOTE: THESE ARE AUTOMATED STATIONS WITH LIMITED QUALITY CONTROL
      "FAIR" INDICATES FEW OR NO CLOUDS BELOW 12,000 FEET WITH NO
      SIGNIFICANT WEATHER AND/OR OBSTRUCTIONS TO VISIBILITY.
      SKY/WX - SKY CONDITION AND SIGNIFICANT WEATHER.
      TMP - AIR TEMPERATURE.    DP   - DEWPOINT TEMPERATURE.
      RH  - RELATIVE HUMIDITY.  PRES - PRESSURE.
      HX  - HEAT INDEX.         WCI  - WIND CHILL INDEX.
$




USA.gov is the U.S. government's official web portal to all federal, state and local government web resources and services.